DateTimeUTC,F1_A11,F1_S11,BsB_S11,BsG_S11,BsR_S11,BbsB_S11,BbsG_S11,BbsR_S11,BaB_A11,BaG_A11,BaR_A11,Tu_S11,T_S11,Uu_S11,U_S11,P_S11,T1_A11
2021-04-16T07:00:00Z,00000200,21000000,,,,,,,0000.20,-000.01,-000.04,18.5,25.2,,00.0,0644.0,31.1
2021-04-16T07:01:00Z,00000200,21000000,,,,,,,-000.61,-000.19,-000.30,18.5,25.2,,00.0,0644.1,31.1
2021-04-16T07:02:00Z,00000200,21000000,,,,,,,0000.73,0000.09,0000.03,18.4,25.2,,00.0,0644.1,31.0
2021-04-16T07:03:00Z,00000200,61000000,,,,,,,-000.42,0000.10,0000.59,18.4,25.2,,00.0,0644.1,31.0
2021-04-16T07:04:00Z,00000200,41000000,0000.65,0000.67,0000.25,0000.18,0000.06,0000.21,0000.32,0000.12,-000.18,18.2,25.0,,00.0,0645.0,31.0
2021-04-16T07:05:00Z,00000200,01000000,0000.49,0000.71,0000.50,-000.19,0000.06,0000.34,0001.23,0001.23,0001.00,18.1,24.9,,00.0,0645.2,31.0
2021-04-16T07:06:00Z,00000200,01000000,0001.03,0000.42,0000.43,0000.28,0000.01,-000.05,0000.25,0000.31,0000.48,18.0,24.8,,00.0,0645.1,31.0
2021-04-16T07:07:00Z,00000200,01000000,0000.69,0000.71,0000.46,0000.65,0000.10,0000.02,0000.71,0000.60,0000.53,18.1,24.8,,00.0,0644.9,31.0
2021-04-16T07:08:00Z,00000200,01000000,0000.67,0000.62,0000.11,0000.32,-000.08,-000.01,0000.27,0000.50,0000.38,18.1,24.8,,00.0,0645.1,31.0
2021-04-16T07:09:00Z,00000200,01000000,0000.69,0000.17,0000.44,0000.39,0000.12,0000.15,0000.74,0000.66,0000.75,18.1,24.8,,00.0,0645.0,31.0
2021-04-16T07:10:00Z,00000200,01000000,0000.32,0000.42,0000.44,0000.78,0000.26,-000.05,0001.05,0001.15,0000.68,18.2,24.8,,00.0,0644.9,31.0
2021-04-16T07:11:00Z,00000200,01000000,0000.65,0000.64,0000.49,0000.23,0000.16,-000.03,0000.76,0000.14,0000.91,18.2,24.9,,00.0,0644.9,31.0
2021-04-16T07:12:00Z,00000200,01000000,0001.18,0000.73,0000.29,0000.25,0000.05,0000.02,0000.02,0000.65,0000.23,18.3,24.9,,00.0,0645.0,31.1
2021-04-16T07:13:00Z,00000200,01000000,0001.13,0000.24,0000.50,0000.17,0000.14,0000.10,0000.69,0000.54,0000.41,18.3,24.9,,00.0,0645.3,31.1
2021-04-16T07:14:00Z,00000200,01000000,0000.99,0000.22,0000.33,0000.67,0000.36,0000.13,0000.23,0000.46,0000.06,18.3,24.9,,00.0,0645.1,31.1
2021-04-16T07:15:00Z,00000200,01000000,0001.17,0000.73,0000.27,-000.00,0000.16,0000.08,0000.64,0000.43,0000.67,18.4,24.9,,00.0,0645.2,31.1
2021-04-16T07:16:00Z,00000200,01000000,0000.75,0000.62,0000.52,0000.38,-000.01,0000.24,0000.48,0000.89,0000.70,18.4,24.9,,00.0,0645.4,31.1
2021-04-16T07:17:00Z,00000200,01000000,0000.53,0000.41,0000.40,0000.37,0000.12,-000.05,0000.36,-000.11,0000.14,18.5,25.0,,00.0,0645.4,31.1
2021-04-16T07:18:00Z,00000200,01000000,0000.75,0000.31,0000.28,0000.28,-000.08,0000.05,0000.38,0000.48,0000.67,18.5,25.0,,00.0,0645.3,31.1
2021-04-16T07:19:00Z,00000200,01000000,0000.74,0000.47,0000.38,0000.55,0000.16,0000.10,0000.79,0001.04,0000.72,18.5,25.0,,00.0,0645.2,31.1
2021-04-16T07:20:00Z,00000200,01000000,0000.41,0000.60,0000.10,0000.40,-000.12,-000.15,0000.61,0000.64,0000.62,18.5,25.0,,00.0,0645.2,31.1
2021-04-16T07:21:00Z,00000200,01000000,0000.80,0000.45,0000.37,0000.13,0000.26,0000.15,0000.82,0000.44,0000.44,18.4,24.9,,00.0,0645.0,31.0
2021-04-16T07:22:00Z,00000200,01000000,0000.44,0000.59,0000.73,0000.26,0000.16,-000.01,0000.33,0000.76,0000.94,18.5,24.9,,00.0,0644.9,31.0
2021-04-16T07:23:00Z,00000200,01000000,0001.66,0000.38,0000.63,0000.13,0000.11,-000.06,-004.15,0000.76,0000.62,18.5,24.9,,00.0,0645.4,31.1
2021-04-16T07:24:00Z,00000200,01000000,0000.47,0000.60,0000.35,0000.12,-000.02,-000.02,0005.55,0000.16,0000.36,18.5,25.0,,00.0,0645.3,31.1
2021-04-16T07:25:00Z,00000200,01000000,0000.61,0000.56,0000.39,0000.54,0000.05,0000.07,0000.87,0000.69,0000.55,18.5,25.0,,00.0,0645.1,31.1
2021-04-16T07:26:00Z,00000200,01000000,0001.12,0000.75,0000.42,0000.44,0000.29,0000.02,0000.08,0000.67,0000.66,18.6,25.0,,00.0,0645.1,31.1
2021-04-16T07:27:00Z,00000200,01000000,0000.45,0000.61,0000.49,0000.33,0000.10,-000.29,0000.60,0000.68,0000.42,18.6,25.0,,00.0,0645.5,31.1
2021-04-16T07:28:00Z,00000200,01000000,0000.88,0000.38,0000.62,0000.08,0000.12,-000.01,0000.77,0000.42,0000.71,18.6,25.0,,00.0,0645.6,31.1
2021-04-16T07:29:00Z,00000200,01000000,0000.77,0000.65,0000.63,0000.68,0000.12,0000.05,0000.60,0000.23,0000.88,18.6,25.0,,00.0,0645.5,31.1
2021-04-16T07:30:00Z,00000200,01000000,0000.26,0000.66,0000.36,0000.52,0000.14,-000.15,0000.85,0000.95,0000.18,18.6,25.0,,00.0,0645.7,31.1
2021-04-16T07:31:00Z,00000200,01000000,0000.40,0000.56,0000.43,0000.01,-000.12,-000.35,0000.34,0000.55,0000.36,18.6,25.1,,00.0,0645.5,31.1
2021-04-16T07:32:00Z,00000200,01000000,0000.37,0000.33,0000.18,0000.56,0000.11,-000.16,0000.35,0000.55,0000.56,18.7,25.1,,00.0,0645.7,31.1
2021-04-16T07:33:00Z,00000200,01000000,0000.88,0000.46,0000.31,0000.31,0000.16,-000.08,0000.30,0000.12,0000.31,18.7,25.1,,00.0,0645.9,31.1
2021-04-16T07:34:00Z,00000200,01000000,0000.96,0000.23,0000.24,0000.41,0000.02,-000.04,0001.39,0001.13,0001.00,18.7,25.1,,00.0,0646.0,31.1
2021-04-16T07:35:00Z,00000200,01000000,0000.21,0000.51,0000.23,0000.11,-000.02,0000.02,-000.28,-000.29,0000.15,18.7,25.1,,00.0,0646.0,31.1
2021-04-16T07:36:00Z,00000200,01000000,0001.10,0000.57,0000.17,0000.70,-000.05,-000.10,0000.89,0000.90,0000.80,18.7,25.1,,00.0,0646.1,31.1
2021-04-16T07:37:00Z,00000200,01000000,0001.08,0000.28,0000.29,0000.27,0000.03,-000.22,0000.39,0000.72,0000.40,18.7,25.1,,00.0,0645.8,31.1
2021-04-16T07:38:00Z,00000200,01000000,0001.30,0000.44,0000.41,0000.17,0000.11,0000.03,0000.72,0000.57,0000.52,18.7,25.1,,00.0,0646.2,31.1
2021-04-16T07:39:00Z,00000200,01000000,0001.09,0000.39,0000.67,0000.13,0000.11,0000.27,0000.60,0000.70,0000.93,18.7,25.1,,00.0,0645.7,31.1
2021-04-16T07:40:00Z,00000200,01000000,0000.70,0000.50,0000.12,0000.09,0000.07,-000.15,0000.30,0000.71,0000.51,18.8,25.2,,00.0,0645.6,31.1
2021-04-16T07:41:00Z,00000200,01000000,0001.16,0000.31,0000.30,0000.74,0000.13,-000.13,0000.53,0000.57,0000.62,18.8,25.2,,00.0,0646.0,31.1
2021-04-16T07:42:00Z,00000200,01000000,0001.02,0000.60,0000.58,0000.61,0000.08,0000.04,0000.85,0000.32,0000.18,18.8,25.2,,00.0,0646.0,31.1
2021-04-16T07:43:00Z,00000200,01000000,0000.74,0000.57,0000.67,0000.38,0000.16,0000.39,0000.19,0000.17,0000.62,18.8,25.2,,00.0,0646.0,31.1
2021-04-16T07:44:00Z,00000200,01000000,0000.77,0000.68,0000.39,0000.81,0000.18,-000.23,0000.81,0001.13,0000.37,18.8,25.2,,00.0,0646.1,31.1
2021-04-16T07:45:00Z,00000200,01000000,0000.56,0000.31,0000.78,0000.17,0000.16,0000.07,0000.76,0000.16,0000.73,18.9,25.2,,00.0,0646.0,31.1
2021-04-16T07:46:00Z,00000200,01000000,0001.05,0000.44,0000.38,0000.32,0000.08,0000.13,-803.20,0001.02,0000.12,18.9,25.2,,00.0,0645.9,31.1
2021-04-16T07:47:00Z,00000200,01000000,0001.02,0000.84,0000.26,0000.70,0000.46,0000.00,0802.92,0000.53,0000.90,18.9,25.3,,00.0,0645.9,31.1
2021-04-16T07:48:00Z,00000200,01000000,0000.49,0000.37,0000.43,-000.31,0000.15,-000.31,0000.38,0000.29,0000.23,18.9,25.2,,00.0,0646.1,31.1
2021-04-16T07:49:00Z,00000200,01000000,0000.89,0000.45,0000.32,0000.36,0000.09,-000.13,0000.63,0000.17,0000.48,18.9,25.2,,00.0,0645.5,31.1
2021-04-16T07:50:00Z,00000200,01000000,0000.38,0000.47,0000.65,0000.50,0000.30,0000.03,0000.61,0000.66,0000.59,18.9,25.2,,00.0,0645.5,31.1
2021-04-16T07:51:00Z,00000200,01000000,0000.39,0000.65,0000.47,0000.19,0000.05,0000.09,0000.10,0000.15,0000.44,18.9,25.2,,00.0,0645.5,31.1
2021-04-16T07:52:00Z,00000200,01000000,0001.00,0000.44,0000.53,0000.76,0000.25,-000.12,0000.91,0000.98,0000.73,18.8,25.2,,00.0,0645.5,31.1
2021-04-16T07:53:00Z,00000200,01000000,0000.67,0000.83,0000.65,0000.41,0000.04,0000.17,0001.42,0001.27,0001.19,18.8,25.2,,00.0,0645.9,31.1
2021-04-16T07:54:00Z,00000200,01000000,0000.02,0000.34,0000.41,0000.72,0000.32,0000.13,0000.28,0000.54,0000.40,18.9,25.2,,00.0,0645.7,31.1
2021-04-16T07:55:00Z,00000200,01000000,0000.69,0000.42,0000.51,0000.49,0000.25,-000.17,0000.44,0000.59,0000.54,18.9,25.2,,00.0,0645.7,31.1
2021-04-16T07:56:00Z,00000200,01000000,0000.72,0000.55,0000.36,0000.34,0000.12,-000.03,0000.94,0000.75,0000.82,18.9,25.2,,00.0,0645.9,31.1
2021-04-16T07:57:00Z,00000200,41000000,,,,,,,0000.70,0000.69,0000.72,18.9,25.3,,00.0,0645.9,31.1
2021-04-16T07:58:00Z,00000200,61000000,,,,,,,-000.71,-000.37,-000.76,18.8,25.3,,00.0,0644.7,31.1
2021-04-16T07:59:00Z,00000200,21000000,,,,,,,0000.24,-000.05,0000.15,18.8,25.4,,00.0,0644.6,31.1
